Regional Weather Roundup
Issued by NWS Green Bay, WI

Home | Current Version | Previous Version | Text Only | Print | Product List | Glossary On
Versions: 1 2 3 4 5 6 7 8 9 10 11 12 13 14 15 16 17 18 19 20 21 22 23 24 25 26 27 28 29 30 31 32 33 34 35 36 37 38 39 40 41 42 43 44 45 46 47 48 49 50
000
ASUS43 KGRB 070510
RWRGRB

NORTH-CENTRAL AND NORTHEAST WISCONSIN REGIONAL WEATHER ROUNDUP
NATIONAL WEATHER SERVICE GREEN BAY WI
1200 AM CDT THU MAY 07 2015

WIZ005-009-010>012-018-019-070600-
NORTH CENTRAL WISCONSIN

CITY           SKY/WX    TMP DP  RH WIND       PRES   REMARKS
IRONWOOD       MOCLDY    64  55  72 S15G22    29.96R
MANITOWISH WTR MOCLDY    61  56  85 S7        30.03R
ARBOR VITAE    CLOUDY    62  56  82 S6        30.04R
EAGLE RIVER    CLOUDY    59  52  79 SE6       30.04F
LAND O LAKES   PTCLDY    59  53  80 SE5       30.05F
RHINELANDER    PTCLDY    58  54  86 SE7       30.05S
PHILLIPS       LGT RAIN  61  58  92 SE6       30.01F
ANTIGO         PTCLDY    55  53  94 SE12      30.06S
TOMAHAWK       CLOUDY    59  55  88 CALM      30.06S
MERRILL        NOT AVBL
$$

WIZ013-073-070600-
NORTHEAST WISCONSIN

CITY           SKY/WX    TMP DP  RH WIND       PRES   REMARKS
IRON MOUNTAIN  PTCLDY    53  47  79 SE6       30.07S
MARINETTE      MOCLDY    48  39  71 E3        30.08F
OCONTO         MOCLDY    50  43  76 CALM      30.08F
$$

WIZ017-030-035>037-045-070600-
CENTRAL WISCONSIN

CITY           SKY/WX    TMP DP  RH WIND       PRES   REMARKS
MEDFORD        CLOUDY    61  58  90 SE7       30.02F
WAUSAU         MOCLDY    60  56  86 SE8       30.03R
MOSINEE        MOCLDY    59  55  88 SE7       30.05S
MARSHFIELD     MOCLDY    63  57  81 E7        30.02F
WISC RAPIDS    PTCLDY    63  56  78 SE6       30.04S
STEVENS POINT  MOCLDY    59  55  85 SE5       30.05R
WAUPACA        PTCLDY    60  55  86 CALM      30.05S HAZE
SHAWANO        PTCLDY    56  53  89 E5        30.07S FOG
CLINTONVILLE   PTCLDY    55  54  94 E5        30.06S FOG
$$

WIZ038-039-048-051-070600-
FOX VALLEY

CITY           SKY/WX    TMP DP  RH WIND       PRES   REMARKS
NWS GREEN BAY  PTCLDY    52  50  93 E5        30.08S FOG
APPLETON       PTCLDY    55  52  88 E6        30.06S
OSHKOSH        PTCLDY    57  53  86 S5        30.05S
FOND DU LAC    PTCLDY    56  52  86 SE9       30.05S FOG
$$

WIZ022-050-052-070600-
EAST CENTRAL WISCONSIN

CITY           SKY/WX    TMP DP  RH WIND       PRES   REMARKS
STURGEON BAY   MOCLDY    48  36  61 SE9       30.11S
MANITOWOC        N/A    N/A N/A N/A MISG        N/A
SHEBOYGAN      FOG       45  44  97 CALM      30.09S VSB 1/2
$$

LMZ563-521-522-541>543-070600-
LAKESHORE

STATION/POSITION TIME  TEMP    WIND        PRES    VSBY  WAVE
                       AIR SEA DIR/SP/G                  HT/PER
                 (UTC) (F)     (DEG/KT/KT) (MB)    (MI)  (FT/S)
SHEBOYGAN LKSHOR 0500   48      CALM  /  1 1019.5S
KEWAUNEE LKSHORE 0500   48      CALM  /  1 1018.1S
NORTHPORT PIER   0500   47     140/  3/  3 1019.0S
SISTER BAY LKSHO 0500   50        CALM       N/A
CHAMBERS ISLAND  0500   51      70/  2/  4 1019.0S
MENOMINEE LKSHOR 0500   52      50/  4/  5 1019.3F
$$


USA.gov is the U.S. government's official web portal to all federal, state and local government web resources and services.